Cloud_Cover
97 34 51 93 99 89 100 100 100 66 82 43 5 38 94 78 100 100 100 100 100 100 100 100 99 100 9 4 0 3 5 0 1 0 0 0 0 0 0 3 0 0 0 1 4 3 2 38 63
7 48 92 71 86 100 91 21 96 53 100 100 96 95 88 90 100 88 100 100 100 100 100 100 25 2 0 2 0 0 0 0 0 0 0 2 0 0 0 0 0 0 0 0 2 5 76 78 71
65 88 100 99 92 100 96 100 84 100 100 100 87 99 100 84 76 100 100 100 100 100 94 26 0 0 5 2 0 0 0 0 3 2 0 0 3 0 5 4 6 0 0 0 0 9 2 28 71
100 100 100 100 100 100 100 100 100 100 75 55 100 99 100 100 100 100 100 100 100 23 0 1 3 5 5 0 11 2 0 0 1 0 0 0 2 5 5 39 16 10 0 10 4 0 3 5 6
14 28 99 100 100 96 99 82 100 94 97 98 54 44 47 72 13 76 100 100 83 2 0 0 5 3 1 0 4 0 0 0 0 0 0 3 4 48 56 5 3 1 0 0 0 0 0 5 5
80 32 73 98 67 82 53 100 62 6 76 100 82 33 75 25 94 100 90 10 0 0 0 1 0 0 0 0 0 0 0 0 0 1 1 36 24 5 4 4 4 8 0 0 0 0 0 0 2
32 86 6 75 45 11 3 5 4 87 100 99 100 99 100 84 98 11 3 0 0 0 0 0 0 0 0 0 0 0 0 0 2 0 4 54 9 1 0 0 0 0 0 0 0 0 0 0 0
96 7 14 52 47 5 3 12 6 36 20 5 5 61 86 100 100 5 0 0 0 0 0 0 0 0 0 0 0 0 0 3 5 35 5 5 5 4 0 0 1 0 0 0 0 0 0 0 0
38 10 8 2 4 5 10 99 96 96 99 76 83 80 94 78 96 3 15 18 42 38 20 3 0 0 0 0 0 0 0 3 4 1 1 4 3 1 1 5 0 0 0 0 0 0 0 0 0
84 97 26 58 0 2 5 5 43 57 64 67 48 42 10 5 67 48 54 42 48 47 61 15 9 1 8 0 0 0 0 5 5 1 0 0 0 5 5 5 4 0 5 4 1 0 0 0 0
5 100 100 100 24 1 4 5 5 1 1 2 5 1 0 0 0 28 21 5 11 18 47 35 15 10 11 0 4 14 2 0 0 0 4 0 0 0 0 0 0 0 7 4 2 0 0 0 0
5 5 5 2 5 3 0 5 5 50 5 1 0 0 0 0 0 0 0 0 0 9 14 25 27 46 27 12 16 14 14 10 12 1 0 0 0 0 0 0 0 0 0 0 0 0 58 0 0
5 5 12 5 5 5 2 0 3 5 53 36 4 1 0 0 0 0 0 0 0 1 1 9 38 61 41 13 28 26 25 14 0 0 0 0 0 0 0 0 0 0 0 8 0 4 6 32 64
5 5 8 16 81 57 0 0 0 4 5 34 22 5 0 0 0 0 0 0 0 0 0 0 14 34 36 4 22 19 24 7 0 0 0 0 0 0 0 0 0 0 0 35 5 45 44 99 84
5 5 5 39 52 98 5 0 0 5 5 94 63 7 0 0 0 0 0 0 0 0 0 0 0 2 12 0 0 21 4 0 0 0 0 100 0 0 0 0 0 0 0 1 53 5 0 0 54
0 2 6 5 13 2 0 3 5 5 5 79 80 8 0 0 0 0 0 0 0 0 0 0 0 0 0 0 0 0 0 0 0 0 72 98 2 0 0 0 0 0 0 0 0 0 0 0 90
0 0 1 0 0 0 2 1 5 5 5 9 85 0 0 0 0 0 0 0 0 0 0 0 0 0 0 0 0 0 0 0 0 0 0 12 0 0 0 0 0 0 0 0 0 0 0 0 11
0 0 0 0 0 0 0 0 0 5 22 5 87 8 0 0 0 0 0 0 0 0 0 0 0 0 0 0 0 0 0 0 0 0 0 0 0 0 0 0 0 0 0 0 0 0 0 0 0
0 0 0 0 0 0 0 0 3 5 32 5 31 100 2 0 0 0 0 0 0 0 0 0 0 0 0 0 1 3 0 0 0 0 0 0 0 0 0 0 0 0 0 0 0 0 0 0 0
0 0 0 0 0 0 0 1 0 4 52 23 99 99 76 0 0 0 0 0 0 0 0 0 0 0 0 0 0 0 0 0 0 0 0 0 0 0 0 0 0 0 0 0 0 0 0 0 0
0 0 0 0 0 2 0 0 4 7 5 4 5 84 54 1 0 0 0 0 0 0 0 0 0 0 0 0 0 0 0 0 0 0 0 0 0 0 0 0 0 0 0 0 0 0 0 0 1
0 0 0 0 2 2 3 0 0 2 5 63 5 5 4 0 0 0 0 0 0 0 0 0 0 0 0 0 0 0 0 0 0 0 0 0 0 0 0 0 0 0 0 0 0 0 0 0 0
0 0 0 0 0 0 1 0 0 0 5 3 5 5 0 0 0 0 0 0 0 0 0 5 0 0 0 0 0 0 0 0 0 0 0 0 0 0 0 0 0 0 0 0 0 0 0 0 0
0 0 0 0 0 3 0 0 0 0 5 84 5 2 3 0 0 0 0 0 0 0 0 0 0 0 0 0 0 0 0 0 0 0 0 0 0 0 0 0 0 0 0 0 0 0 0 0 1
0 0 0 0 0 15 0 0 0 0 5 65 3 4 5 1 0 0 0 2 0 0 0 0 0 0 0 0 0 0 0 0 0 0 0 0 0 13 0 0 0 0 0 0 0 0 0 0 0
0 0 0 0 0 0 0 74 0 0 43 80 2 16 48 5 4 0 5 5 0 1 3 0 0 2 0 0 0 0 0 0 0 0 0 0 0 0 0 0 0 0 0 0 0 0 0 0 0
0 0 0 0 0 0 0 0 5 1 3 85 37 60 5 5 0 2 5 5 5 5 5 2 0 0 0 0 0 0 0 0 0 0 0 0 0 0 0 0 0 0 0 0 0 0 0 0 0
0 0 0 0 0 0 0 0 0 0 0 0 25 3 4 6 58 72 2 2 3 48 20 0 0 5 0 0 0 0 0 0 0 0 0 0 0 0 0 0 0 0 0 0 0 0 0 0 2
0 0 0 0 0 0 0 0 0 0 0 0 0 5 31 5 5 100 59 26 4 4 4 6 36 28 4 0 5 31 0 0 0 0 0 0 0 0 0 0 0 0 0 0 0 0 0 0 0
0 0 0 0 0 0 0 0 0 0 0 0 0 0 25 89 1 2 4 48 26 1 5 1 11 71 22 42 77 100 99 0 0 0 0 0 0 0 0 0 0 0 0 0 0 0 0 0 0